Regional Weather Roundup
Issued by NWS Memphis, TN

Home | Current Version | Previous Version | Text Only | Print | Product List | Glossary On
Versions: 1 2 3 4 5 6 7 8 9 10 11 12 13 14 15 16 17 18 19 20 21 22 23 24 25 26 27 28 29 30 31 32 33 34 35 36 37 38 39 40 41 42 43 44 45 46 47 48 49 50
000
ASUS44 KMEG 291410
RWRMEG
MEMPHIS CWA HOURLY WEATHER ROUNDUP
NATIONAL WEATHER SERVICE MEMPHIS TN
900 AM CDT SUN MAY 29 2016

...WEST TENNESSEE...

CITY           SKY/WX    TMP DP  RH WIND       PRES   REMARKS
MEMPHIS INTL   MOSUNNY   79  71  76 CALM      30.14R
NWS MEMPHIS      N/A     77 N/A N/A MISG        N/A
JACKSON        MOSUNNY   77  70  79 W6        30.14S
LEXINGTON      CLOUDY    75  70  83 CALM      30.15R
DYERSBURG      MOSUNNY   75  70  83 S3        30.12S
UNION CITY     MOSUNNY   75  72  88 SW3       30.11S
PARIS          SUNNY     75  66  73 SW3       30.13S


...EASTERN ARKANSAS...

CITY           SKY/WX    TMP DP  RH WIND       PRES   REMARKS
JONESBORO      SUNNY     76  68  76 W3        30.11R
WEST MEMPHIS   SUNNY     76  71  85 S6        30.12R
BATESVILLE     MOSUNNY   73  68  83 W5        30.13S
NEWPORT        CLOUDY    78  69  73 CALM      30.14R
WALNUT RIDGE   SUNNY     73  66  78 W5        30.12R
BLYTHEVILLE    SUNNY     76  70  82 S6        30.12S
SEARCY         CLOUDY    73  70  88 CALM      30.14S
STUTTGART      PTSUNNY   79  70  73 W5        30.13S
PINE BLUFF     PTSUNNY   76  71  85 E3        30.14R
MONTICELLO     PTSUNNY   77  71  82 VRB3      30.14R


...NORTH MISSISSIPPI...

CITY           SKY/WX    TMP DP  RH WIND       PRES   REMARKS
TUPELO         SUNNY     77  69  76 CALM      30.15R
OXFORD         SUNNY     75  68  78 W6        30.17S
BATESVILLE     SUNNY     75  70  83 CALM      30.15S
OLIVE BRANCH   MOSUNNY   75  73  94 CALM      30.15
TUNICA         SUNNY     73  70  88 SE6       30.14F
CLARKSDALE     SUNNY     77  77 100 CALM      30.15S
CORINTH        MOSUNNY   75  68  78 N3        30.14S
GREENWOOD      CLOUDY    78  69  73 W3        30.15R
COLUMBUS       SUNNY     78  68  70 VRB7      30.15R
STARKVILLE     SUNNY     77  68  73 W3        30.15S
GOLDEN TRIANGL SUNNY     79  68  69 NW5       30.15R


...SOUTHEAST MISSOURI...

CITY           SKY/WX    TMP DP  RH WIND       PRES   REMARKS
KENNETT        SUNNY     77  72  83 VRB5      30.10S
WEST PLAINS    SUNNY     76  65  68 VRB5      30.16R
POPLAR BLUFF   SUNNY     75  68  78 NW3       30.10S
CAPE GIRARDEAU MOSUNNY   73  69  87 W6        30.10R


...NORTHWEST ALABAMA...

CITY           SKY/WX    TMP DP  RH WIND       PRES   REMARKS
MUSCLE SHOALS  PTSUNNY   76  65  68 CALM      30.17R


...MIDDLE TENNESSEE...

CITY           SKY/WX    TMP DP  RH WIND       PRES   REMARKS
NASHVILLE      SUNNY     78  65  63 CALM      30.16S
CLARKSVILLE    SUNNY     75  68  78 W5        30.14R
COLUMBIA       SUNNY     79  79 100 W5        30.14S


...WESTERN KENTUCKY...

CITY           SKY/WX    TMP DP  RH WIND       PRES   REMARKS
PADUCAH        MOSUNNY   77  68  73 SW6       30.10S
FORT CAMPBELL  SUNNY     75  69  81 SW5       30.13S


...CENTRAL ARKANSAS...

CITY           SKY/WX    TMP DP  RH WIND       PRES   REMARKS
LITTLE ROCK    CLOUDY    78  68  71 CALM      30.12S


SKY/WX REPORTED AS FAIR MEANS FEW OR NO CLOUDS BELOW
12 THOUSAND FEET.





USA.gov is the U.S. government's official web portal to all federal, state and local government web resources and services.